Regional Weather Roundup
Issued by NWS Upton, NY

Current Version | Previous Version | Graphics & Text | Print | Product List | Glossary Off
Versions: 1 2 3 4 5 6 7 8 9 10 11 12 13 14 15 16 17 18 19 20 21 22 23 24 25 26 27 28 29 30 31 32 33 34 35 36 37 38 39 40 41 42 43 44 45 46 47 48 49

410
ASUS41 KOKX 222108
RWROKX

REGIONAL WEATHER ROUNDUP
NATIONAL WEATHER SERVICE NEW YORK NY
500 PM EDT SAT APR 22 2017

NOTE: "FAIR" INDICATES FEW OR NO CLOUDS BELOW 12,000 FEET WITH NO
SIGNIFICANT WEATHER AND/OR OBSTRUCTIONS TO VISIBILITY.

NYZ071-072-176-178-NJZ106-104-222200-
NEW YORK CITY METRO AREA

CITY           SKY/WX    TMP DP  RH WIND       PRES   REMARKS
Central Park   LGT RAIN  53  52  96 N3        29.96R FOG
Wall St Helipt CLOUDY    54  48  82 W8        29.95R
Bronx Bot Gard   N/A     52  48  87 N3        29.93F
LaGuardia APRT LGT RAIN  55  50  83 N3        29.93R
Kennedy INTL   LGT RAIN  53  51  93 SW8       29.95R
Breezy Point     N/A     50 N/A N/A SW5         N/A
Newark/Liberty CLOUDY    56  48  74 NW12G22   29.94R
Teterboro      DRIZZLE   55  51  86 N5        29.93
$$

NYZ177-179-078>081-222200-
LONG ISLAND NEW YORK

CITY           SKY/WX    TMP DP  RH WIND       PRES   REMARKS
Jones Beach      N/A     50 N/A N/A SW7         N/A
Matinecock PT    N/A     52 N/A N/A W2          N/A
Farmingdale    CLOUDY    53  50  89 NW3       29.93R
MacArthur/ISP  LGT RAIN  52  49  89 NW5       29.93R
Shirley        LGT RAIN  50  48  93 VRB3      29.93R
Mt Sinai Harb    N/A    N/A N/A N/A MISG        N/A
Westhampton    CLOUDY    50  47  89 N5        29.94R
East Hampton   CLOUDY    49  47  92 N3        29.92R
Montauk          N/A     48  45  89 N5        29.93R
$$

NYZ052-065-067-222200-
HUDSON VALLEY

CITY           SKY/WX    TMP DP  RH WIND       PRES   REMARKS
White Plains   LGT RAIN  53  47  79 NW6       29.92R
Larchmont Harb   N/A     52 N/A N/A W5          N/A
Croton O-T Hud   N/A     54 N/A N/A N3          N/A
Newburgh       PTSUNNY   54  46  76 VRB6      29.94S
Montgomery     CLOUDY    56  44  64 NW7       29.92R
Poughkeepsie   CLOUDY    55  44  66 W6        29.92R
Albany         PTSUNNY   53  37  54 NW12      29.96
$$

NJZ001-105-106-008-010-013-015-019>022-104-222200-
NEW JERSEY

CITY           SKY/WX    TMP DP  RH WIND       PRES   REMARKS
Newark/Liberty CLOUDY    56  48  74 NW12G22   29.94R
Teterboro      DRIZZLE   55  51  86 N5        29.93
Caldwell       CLOUDY    55  44  66 NW9       29.95R
Somerville     CLOUDY    56  46  69 N7        29.94R
Linden         CLOUDY    55  49  79 NW10G16   29.95R
Sussex         CLOUDY    55  40  56 VRB5      29.95S
Andover          N/A     54  40  59 NW7       29.95R
Trenton        LGT RAIN  53  51  93 NW5       29.96R
Millville      LGT RAIN  54  53  97 N9        29.95R FOG
Atlantic City  CLOUDY    56  51  84 N5        29.93S
Wrightstown    PTSUNNY   54  52  94 NW9       29.92R
Toms River     LGT RAIN  53  52  96 CALM      29.95S FOG
Belmar         LGT RAIN  53  51  93 W5        29.95R FOG
$$

PAZ047>061-062-071-222200-
EASTERN PENNSYLVANIA

CITY           SKY/WX    TMP DP  RH WIND       PRES   REMARKS
Philadelphia   LGT RAIN  54  50  86 NW9       29.97R
Allentown      CLOUDY    55  43  63 NW6       29.97
Scranton       CLOUDY    52  37  56 N13       29.97S
$$

CTZ002-004>006-009-010-012-RIZ004-006-007-MAZ004-011-015-222200-
SOUTHERN NEW ENGLAND
 IN CT

CITY           SKY/WX    TMP DP  RH WIND       PRES   REMARKS
Bradley INTL   CLOUDY    55  44  66 E5        29.91S
Hartford       PTSUNNY   54  46  74 NE5       29.91S
Danbury        CLOUDY    52  45  77 VRB5      29.93R
Wtrbury/Oxford CLOUDY    54  43  66 NW5       29.94R
Bridgeport     CLOUDY    51  47  86 SW5       29.93R
Meriden        CLOUDY    54  47  77 CALM      29.92S
New Haven      CLOUDY    53  47  79 CALM      29.92R
Chester        MOCLDY    52  46  82 NW6       29.91S
Groton         LGT RAIN  51  47  86 NE6       29.90S
Wilimantic     CLOUDY    55  47  74 CALM      29.91S

 IN RI

CITY           SKY/WX    TMP DP  RH WIND       PRES   REMARKS
Providence     LGT RAIN  47  45  93 N9        29.93R
Block Island   LGT RAIN  47  45  93 N9        29.92R
Westerly       LGT RAIN  50  47  89 N6        29.92R
 IN MA

CITY           SKY/WX    TMP DP  RH WIND       PRES   REMARKS
Boston         CLOUDY    45  42  89 N9        29.94R
Worcester      CLOUDY    45  41  86 E5        29.91R
Westfield      CLOUDY    55  45  68 NE3       29.91R
Provincetown   LGT RAIN  42  41  96 N17G25    29.92R
Nantucket      LGT RAIN  45  42  89 N20       29.87R
$$

ANZ330-335-338-340-345-350-353-355-222200-
COASTAL MARINE OBSERVATIONS


STATION/POSITION TIME  SKY/WX   TEMP    WIND        PRES    VSBY  WAVE
                                AIR SEA DIR/SP/G                  HT/PER
                 (UTC)          (F)     (DEG/KT/KT) (MB)    (MI)  (FT/S)
NY HARB ENTRANCE 1950            50 50  250/  4/  6 1013.5          4/13
20 S FIRE ISLAND 2050            48 48  280/  2/  4 1013.3          5/11
GREAT SOUTH BAY  2030            51 56  360/  2/  6   N/A
23 SSW MONTAUK P 1950            46 46              1012.9          5/11
15 E BARNEGAT LI 2030               51                N/A           5/11
HUDSON CANYON    1950            46 47   20/ 10/ 14 1012.6          6/11
KINGS POINT      2042            50 47     CALM     1013.5
EXECUTION ROCKS  NOT AVBL
CENTRAL LI SOUND NOT AVBL
EASTERN LI SOUND NOT AVBL
ROBBINS REEF     2048            54     300/ 10/ 11 1014.0
$$


>>>>>>>>>>>>>>>>>>>>>>>>>>>> KEY <<<<<<<<<<<<<<<<<<<<<<<<<<<
>                                                          <
>     SKY/WX - Sky Condition/Present Weather               <
>     TMP    - Temperature in Fahrenheit                   <
>     DP     - Dew Point in Fahrenheit                     <
>     RH     - Relative Humidity in Percent                <
>     WIND   - Direction (from) and Speed in MPH           <
>     PRES   - Mean Sea Level Pressure (inches of Hg)      <
>     WCI    - Wind Chill Index                            <
>     VSB    - VISIBILITY IN MILES                         <
>     HX     - HEAT INDEX                                  <
>     TC     - TEMPERATURE IN CELSIUS                      <
>     VRB    - VARIABLE WIND DIRECTION                     <
>                                                          <
>>>>>>>>>>>>>>>>>>>>>>>>>>>> KEY <<<<<<<<<<<<<<<<<<<<<<<<<<<




USA.gov is the U.S. government's official web portal to all federal, state and local government web resources and services.